Location: Berrent
(51.1167°N, 3.6833°E)
Time: 09:39:06
(UTC+00:00)

Daily predictions for brighter satellites

Satellite Brightness Start Highest point End
(mag) Time Altitude Azimuth Time Altitude Azimuth Time Altitude Azimuth
Cosmos 2344 4.2 16:19:55 10° NW 16:26:47 39° NNE 16:35:04 10° E
CZ-4C R/B 2.6 16:26:08 10° WSW 16:30:36 52° NW 16:36:23 10° NE
ATLAS 2AS CENTAUR R/B 3.7 16:25:51 10° NW 16:31:47 30° N 16:37:37 10° ENE
Cosmos 2263 Rocket 4.3 16:29:19 10° WNW 16:32:46 16° NNW 16:36:14 10° N
UNK 4.3 16:30:12 10° NNE 16:34:32 39° E 16:38:50 10° SSE
Cosmos 1844 Rocket 3.9 16:29:25 10° WSW 16:34:37 39° NW 16:39:52 10° NNE
Cosmos 1459 Rocket 4.3 16:30:03 10° SSW 16:36:21 78° W 16:42:46 10° N
YAOGAN 1 4.1 16:34:08 10° E 16:36:31 15° ENE 16:38:53 10° NNE
COSMOS 2406 4.3 16:36:13 10° NNW 16:40:52 25° NE 16:45:30 10° E
Cosmos 2084 Rocket 3.4 16:37:45 10° SW 16:41:56 76° SE 16:46:08 10° NE
Cosmos 2100 Rocket 4.5 16:37:57 10° SSW 16:44:04 64° WNW 16:50:12 10° N
ATLAS CENTAUR R/B 2.3 16:41:17 10° WSW 16:44:26 32° NW 16:47:36 10° NNE
Cosmos 1441 Rocket 3.6 16:42:09 10° NNW 16:45:27 56° W 16:48:44 10° S
Cosmos 1833 Rocket 3.2 16:40:41 10° NW 16:46:19 68° WSW 16:51:54 10° SSE
SAR-Lupe-4 3.7 16:43:20 10° SSE 16:46:50 52° ENE 16:50:20 10° N
ARIANE 5 R/B 2.5 16:42:39 10° SE 16:47:30 58° ENE 16:52:25 10° N
Timation 1 Rocket 4.3 16:48:47 10° NNW 16:54:45 65° NE 17:00:40 10° SE
USA 215 3.6 16:48:19 10° SE 16:54:52 73° SW 17:01:26 10° WNW
IRS-P3 4.2 16:53:08 10° SE 16:58:17 53° ENE 17:03:30 10° N
ATLAS 5 CENTAUR R/B 2.9 16:55:59 10° NW 17:00:09 48° SW 17:05:18 10° SSE
MOS 1 Rocket 3.6 16:56:23 10° SE 17:00:25 39° ENE 17:04:39 10° N
Cosmos 1484 Rocket 4.4 17:01:16 10° SSW 17:04:30 34° W 17:07:46 10° NNW
Iridium 4 Rocket 4.4 17:01:57 10° SSW 17:06:46 47° W 17:11:14 10° N
Resurs 01 Rocket 3.4 17:08:57 14° NE 17:08:57 14° NE 17:10:48 10° NNE
SJ-6F 4.4 17:05:03 10° SSE 17:08:52 54° ENE 17:12:43 10° N
RESURS DK-1 2.2 17:04:53 10° NNW 17:08:55 78° NE 17:12:55 10° SE
Cosmos 2233 Rocket 4.1 17:02:49 10° S 17:09:08 89° ESE 17:15:31 10° N
Cosmos 1602 3.9 17:06:24 10° N 17:09:08 29° ENE 17:11:52 10° SE
Cosmos 407 Rocket 3.7 17:05:12 10° S 17:10:09 48° ESE 17:15:06 10° NNE
Cosmos 1725 Rocket 4.5 17:03:57 10° SSW 17:10:11 66° WNW 17:16:31 10° N
Cosmos 2061 Rocket 4.0 17:05:21 10° S 17:11:39 85° E 17:17:55 10° N
Geosat FO 4.1 17:12:37 10° SE 17:15:26 53° NE 17:18:16 10° NNW
ISS -2.8 17:12:28 10° SW 17:15:32 34° SSE 17:17:12 21° E
Cosmos 1782 Rocket 3.8 17:11:28 10° SSW 17:15:54 72° WNW 17:20:20 10° N
CZ-2D R/B 2.7 17:13:32 10° SSE 17:16:41 85° WSW 17:19:51 10° NNW
Cosmos 1869 3.0 17:14:10 10° S 17:17:37 54° E 17:21:03 10° NNE
ERS-1 4.5 17:13:33 10° SSE 17:18:42 86° ENE 17:23:50 10° NNW
USA 281 4.2 17:15:06 16° E 17:18:57 27° NE 17:24:14 10° NNW
SPOT 1/Viking Rocket 3.7 17:14:31 10° SE 17:19:28 48° ENE 17:24:28 10° N
Cosmos 1300 Rocket 4.1 17:15:46 10° SSW 17:20:06 60° WNW 17:24:26 10° N
COSMO-SKYMED 1 3.6 17:21:26 22° ENE 17:22:08 23° E 17:25:24 10° SE
SJ-12 3.8 17:19:42 10° S 17:23:30 77° WSW 17:27:19 10° NNW
Cosmos 1464 Rocket 4.4 17:19:21 10° SSE 17:25:08 40° E 17:30:53 10° NNE
AQUARIUS 4.1 17:22:53 10° SSE 17:27:18 90° SW 17:31:45 10° NNW
SL-12 R/B(2) 4.4 17:20:14 10° SSW 17:28:06 65° SE 17:36:59 13° NE
Cosmos 540 Rocket 3.5 17:23:44 10° NNW 17:28:53 84° WSW 17:34:00 10° SSE
BREEZE-M DEB (TANK) 2.8 17:27:19 10° SW 17:29:47 45° SSE 17:32:21 22° E
Cosmos 1400 Rocket 3.7 17:28:27 10° SSE 17:31:13 25° ESE 17:31:13 25° ESE
Cosmos 1975 Rocket 3.9 17:27:54 10° NNW 17:32:09 53° W 17:36:24 10° S
Spot 4 Rocket 4.1 17:28:20 10° SE 17:33:16 53° ENE 17:38:14 10° N
Cosmos 1763 Rocket 3.9 17:29:09 10° NNW 17:34:20 66° WSW 17:39:26 10° S
Cosmos 1812 1.9 17:34:07 10° S 17:36:58 56° E 17:37:34 44° NE
Cosmos 1140 Rocket 4.1 17:37:01 10° SW 17:42:05 56° WNW 17:47:10 10° NNE
Cosmos 2151 Rocket 3.9 17:37:59 10° SSE 17:42:14 44° E 17:45:29 16° NNE
Cosmos 2058 2.6 17:38:15 10° N 17:42:15 75° ENE 17:46:13 10° SSE
SMAP 4.5 17:39:07 10° SSW 17:43:30 41° W 17:47:55 10° NNW
Cosmos 44 Rocket 3.4 17:40:11 10° SSW 17:44:52 57° SE 17:47:06 30° ENE
SKYMED 2 3.6 17:45:23 15° NNE 17:48:57 57° E 17:53:13 10° S
Cosmos 1943 Rocket 2.1 17:44:18 10° SSW 17:49:55 80° ESE 17:54:09 18° NNE
Helios 1A Rocket 3.8 17:51:57 25° SSE 17:51:57 25° SSE 17:53:44 10° S
Cosmos 1092 Rocket 4.4 17:44:55 10° N 17:50:42 38° ENE 17:54:59 17° SE
Okean 1 Rocket 3.6 17:48:07 10° SSE 17:51:43 35° ESE 17:51:43 35° ESE
CZ-2D R/B 3.3 17:48:10 10° SSE 17:52:19 84° ENE 17:56:34 10° NNW
SJ-7 4.0 17:48:40 10° SSE 17:52:19 66° ENE 17:56:00 10° N
IRAS Rocket 4.1 17:47:15 10° SSE 17:52:47 77° ENE 17:58:19 10° NNW
Cosmos 2082 Rocket 2.2 17:47:26 10° NNW 17:53:05 85° WSW 17:58:42 10° SSE
Sich 1 Rocket 4.0 17:48:59 10° SSE 17:53:11 39° E 17:53:29 38° E
PSLV R/B 3.3 17:49:55 10° SSE 17:53:54 63° ENE 17:57:54 10° N
Cosmos 2026 Rocket 4.1 17:51:31 10° N 17:57:21 45° ENE 18:03:12 10° SE
Cosmos 1072 Rocket 4.3 17:52:07 10° S 17:58:13 72° E 18:04:19 10° NNE
Cosmos 2278 Rocket 2.1 17:53:01 10° SSW 17:58:42 87° ESE 18:02:47 20° NNE
NOAA 6 4.0 17:55:37 10° SSE 18:00:40 60° ENE 18:05:44 10° N
BREEZE-M DEB (TANK) 3.6 17:58:40 10° SW 18:01:34 50° SSE 18:03:16 36° E
Aureole 3 Rocket 2.5 17:58:40 10° SSW 18:01:40 66° WNW 18:03:12 28° N
BREEZE-M DEB (TANK) 3.0 17:59:45 10° WSW 18:02:26 72° SSE 18:04:09 39° E
SL-16 R/B 4.1 17:59:27 10° N 18:04:54 32° WNW 18:10:20 10° WSW
Geosat 3.9 18:04:10 32° SE 18:06:27 65° NE 18:11:25 10° NNW
Cosmos 2251 Rocket 3.4 18:04:13 10° SSW 18:09:30 82° ESE 18:12:38 26° NNE
YAOGAN 1 2.5 18:07:31 10° SSE 18:11:47 84° WSW 18:16:04 10° NNW
Cosmos 371 Rocket 3.4 18:08:29 10° S 18:12:52 49° ESE 18:12:52 49° ESE
Cosmos 841 Rocket 3.4 18:08:50 10° NNW 18:14:08 79° ENE 18:17:15 25° SSE
Cosmos 304 Rocket 3.8 18:09:35 10° S 18:13:57 52° ESE 18:13:57 52° ESE
SJ 16-02 1.1 18:11:27 10° S 18:15:42 67° ESE 18:15:42 67° ESE
SL-19 R/B 4.1 18:10:49 10° SSE 18:16:01 82° WSW 18:21:18 10° NNW
Nadezhda 4 Rocket 4.1 18:13:10 10° NNW 18:19:29 80° W 18:25:42 10° S
CZ-4C R/B 3.7 18:15:44 10° WNW 18:20:12 27° N 18:22:35 21° NNE
ATLAS CENTAUR R/B 3.6 18:19:17 10° NW 18:20:27 11° NNW 18:20:45 11° N
Cosmos 1862 3.8 18:18:21 10° NNW 18:21:53 52° W 18:25:25 10° S
Resurs 1-3 3.8 18:19:30 10° S 18:23:46 69° WSW 18:28:06 10° NNW
ATLAS 2AS CENTAUR R/B 2.8 18:17:27 10° NW 18:24:07 54° NE 18:25:35 46° ENE
COSMOS 2406 3.2 18:20:09 10° NNW 18:25:52 85° WSW 18:29:07 27° SSE
Cosmos 1627 Rocket 4.3 18:21:50 10° N 18:27:57 70° ENE 18:34:06 10° SSE
Cosmos 1656 Rocket 4.3 18:24:38 10° S 18:28:33 38° SSE 18:28:33 38° SSE
Cosmos 2195 Rocket 4.4 18:27:01 10° N 18:33:22 90° W 18:39:43 10° S
Okean 2 Rocket 3.2 18:32:40 10° SSW 18:37:03 70° WNW 18:37:52 55° NNW
Cosmos 1190 Rocket 4.2 18:35:10 10° SSW 18:40:27 70° WNW 18:42:26 38° N
Cosmos 2344 3.8 18:34:24 10° NW 18:42:13 88° NE 18:47:32 32° SE
Cosmos 676 Rocket 3.9 18:38:00 10° SSW 18:43:15 83° SE 18:43:15 83° SE
Resurs 01 Rocket 3.0 18:46:22 30° NNW 18:46:22 30° NNW 18:48:41 10° NNW
Meteor 2-3 Rocket 3.7 18:39:35 10° NNW 18:45:19 79° W 18:49:59 15° S
Cosmos 2297 Rocket 4.3 18:46:26 10° N 18:48:17 14° N 18:48:17 14° N
ISS -1.3 18:48:46 10° W 18:50:07 22° W 18:50:07 22° W
Cosmos 1954 Rocket 4.2 18:48:09 10° SW 18:53:24 67° WNW 18:54:18 56° NNW
COSMO-SKYMED 1 3.6 18:57:48 42° WNW 18:57:48 42° WNW 19:01:32 10° SW
USA 281 3.1 19:02:00 73° SE 19:02:43 85° ENE 19:09:21 10° NNW
Cosmos 1943 Rocket 3.9 19:29:38 10° W 19:34:16 26° NW 19:35:40 23° NNW
Cosmos 2278 Rocket 4.0 19:38:54 10° W 19:43:30 25° NW 19:44:37 23° NNW
SJ 16-02 4.2 19:51:10 10° W 19:52:17 14° W 19:52:17 14° W
CZ-4C R/B 4.3 20:04:56 10° NW 20:07:32 23° NNW 20:07:32 23° NNW
ATLAS 2AS CENTAUR R/B 3.8 20:08:33 10° NW 20:13:01 38° WNW 20:13:01 38° WNW
